User: anonymous   Login
Location: Unspecified
(0.0000°N, 0.0000°E)
Time: 11:35:39
(UTC+00:00)
Language:

AUBIESAT-1 - Orbit

View from above orbital plane
View from above orbital plane
View from above satellite
View from above satellite

Ground track
Ground track

The orbit data is extracted from the following two-line orbital elements,

1 37854U 11061E   21015.80721431  .00001386  00000-0  75790-4 0  9991
2 37854 101.7130 222.9907 0156122 150.0798 210.9453 15.08058993503471
Epoch (UTC): 15 January 2021 19:22:23
Eccentricity: 0.0156122
inclination: 101.7130°
perigee height: 434 km
apogee height: 650 km
right ascension of ascending node: 222.9907°
argument of perigee: 150.0798°
revolutions per day: 15.08058993
mean anomaly at epoch: 210.9453°
orbit number at epoch: 50347

The dashed part of the orbit path shows where the satellite is in the earth's shadow,  

DLR